When you browse on this site, cookies collect data to enhance your experience and personalize the content and advertising you see.
Visit our Privacy Policy to learn more. By continuing to use the site, you agree to this use of cookies and data.
  • In Switzerland
  • List of Countries
  • For 7 days
  • Water Temperature
  • Weather Map
  • Weather Widgets
  • user-avatar
    Login

    Hourly Weather Nashavar

    Today, 6 April, Monday

    Time Temperature Precipitation Wind Pressure Humidity
    00:00 +21°C° 0.4 mm 1 mps 732 mmHg 70%
    01:00 +19°C° 0.4 mm 2 mps 732 mmHg 77%
    02:00 +18°C° 0.4 mm 2 mps 731 mmHg 83%
    03:00 +19°C° 0.2 mm 1 mps 731 mmHg 84%
    04:00 +18°C° 0.2 mm 1 mps 731 mmHg 85%
    05:00 +16°C° 0 mm 0 mps 731 mmHg 86%
    06:00 +17°C° 0 mm 0 mps 731 mmHg 81%
    07:00 +18°C° 0 mm 0 mps 732 mmHg 76%
    08:00 +19°C° 0 mm 0 mps 732 mmHg 71%
    09:00 +23°C° 0 mm 1 mps 732 mmHg 64%
    10:00 +24°C° 0 mm 1 mps 732 mmHg 57%
    11:00 +26°C° 0 mm 2 mps 732 mmHg 50%
    12:00 +26°C° 0 mm 2 mps 732 mmHg 47%
    13:00 +27°C° 0 mm 2 mps 731 mmHg 44%
    14:00 +28°C° 0 mm 2 mps 731 mmHg 41%
    15:00 +28°C° 0 mm 2 mps 730 mmHg 40%
    16:00 +28°C° 0 mm 2 mps 730 mmHg 40%
    17:00 +28°C° 0 mm 2 mps 729 mmHg 39%
    18:00 +27°C° 0.1 mm 2 mps 730 mmHg 43%
    19:00 +26°C° 0.1 mm 2 mps 730 mmHg 47%
    20:00 +24°C° 0.1 mm 1 mps 730 mmHg 51%
    21:00 +24°C° 0.1 mm 1 mps 730 mmHg 53%
    22:00 +23°C° 0.1 mm 2 mps 730 mmHg 55%
    23:00 +23°C° 0.1 mm 2 mps 730 mmHg 57%

    Tomorrow, 7 April, Tuesday

    Time Temperature Precipitation Wind Pressure Humidity
    00:00 +21°C° 0.9 mm 2 mps 729 mmHg 60%
    01:00 +21°C° 0.9 mm 3 mps 729 mmHg 63%
    02:00 +20°C° 0.9 mm 3 mps 728 mmHg 66%
    03:00 +19°C° 1.3 mm 3 mps 728 mmHg 68%
    04:00 +19°C° 1.3 mm 2 mps 728 mmHg 71%
    05:00 +18°C° 1.3 mm 2 mps 728 mmHg 73%
    06:00 +18°C° 0.5 mm 2 mps 728 mmHg 72%
    07:00 +18°C° 0.5 mm 2 mps 728 mmHg 70%
    08:00 +19°C° 0.5 mm 2 mps 729 mmHg 69%
    09:00 +19°C° 0.1 mm 3 mps 729 mmHg 65%
    10:00 +20°C° 0.1 mm 4 mps 729 mmHg 62%
    11:00 +21°C° 0.1 mm 4 mps 730 mmHg 58%
    12:00 +22°C° 0.1 mm 4 mps 729 mmHg 55%
    13:00 +23°C° 0.1 mm 4 mps 729 mmHg 51%
    14:00 +23°C° 0.1 mm 5 mps 729 mmHg 47%
    15:00 +23°C° 0 mm 4 mps 729 mmHg 46%
    16:00 +23°C° 0 mm 4 mps 729 mmHg 45%
    17:00 +25°C° 0 mm 4 mps 728 mmHg 44%
    18:00 +24°C° 0 mm 3 mps 728 mmHg 47%
    19:00 +23°C° 0 mm 2 mps 729 mmHg 50%
    20:00 +21°C° 0 mm 2 mps 729 mmHg 52%
    21:00 +20°C° 0 mm 2 mps 729 mmHg 53%
    22:00 +21°C° 0 mm 1 mps 729 mmHg 54%
    23:00 +20°C° 0 mm 1 mps 729 mmHg 55%

    Day after tomorrow, 8 April, Wednesday

    Time Temperature Precipitation Wind Pressure Humidity
    00:00 +20°C° 0 mm 1 mps 728 mmHg 57%
    01:00 +19°C° 0 mm 1 mps 728 mmHg 59%
    02:00 +19°C° 0 mm 1 mps 728 mmHg 61%
    03:00 +18°C° 0 mm 1 mps 728 mmHg 61%
    04:00 +18°C° 0 mm 1 mps 728 mmHg 62%
    05:00 +18°C° 0 mm 1 mps 727 mmHg 63%
    06:00 +19°C° 0 mm 1 mps 728 mmHg 59%
    07:00 +20°C° 0 mm 1 mps 728 mmHg 55%
    08:00 +22°C° 0 mm 1 mps 728 mmHg 51%
    09:00 +23°C° 0 mm 1 mps 728 mmHg 47%
    10:00 +25°C° 0 mm 1 mps 729 mmHg 42%
    11:00 +26°C° 0 mm 1 mps 729 mmHg 38%
    12:00 +27°C° 0 mm 1 mps 728 mmHg 36%
    13:00 +28°C° 0 mm 1 mps 728 mmHg 33%
    14:00 +29°C° 0 mm 1 mps 728 mmHg 30%
    15:00 +29°C° 0 mm 1 mps 728 mmHg 31%
    16:00 +29°C° 0 mm 1 mps 727 mmHg 31%
    17:00 +29°C° 0 mm 1 mps 727 mmHg 32%
    18:00 +28°C° 0 mm 1 mps 727 mmHg 37%
    19:00 +26°C° 0 mm 1 mps 727 mmHg 41%
    20:00 +24°C° 0 mm 1 mps 728 mmHg 46%
    21:00 +24°C° 0 mm 1 mps 728 mmHg 47%
    22:00 +23°C° 0 mm 1 mps 728 mmHg 49%
    23:00 +23°C° 0 mm 1 mps 728 mmHg 50%

    9 April, Thursday

    Time Temperature Precipitation Wind Pressure Humidity
    00:00 +22°C° 0 mm 1 mps 727 mmHg 51%
    01:00 +22°C° 0 mm 1 mps 727 mmHg 52%
    02:00 +21°C° 0 mm 1 mps 727 mmHg 53%
    03:00 +21°C° 0 mm 1 mps 727 mmHg 54%
    04:00 +19°C° 0 mm 0 mps 726 mmHg 55%
    05:00 +19°C° 0 mm 0 mps 726 mmHg 56%
    06:00 +22°C° 0 mm 1 mps 727 mmHg 53%
    07:00 +23°C° 0 mm 1 mps 727 mmHg 49%
    08:00 +24°C° 0 mm 1 mps 728 mmHg 46%
    09:00 +25°C° 0 mm 1 mps 728 mmHg 43%
    10:00 +26°C° 0 mm 1 mps 728 mmHg 39%
    11:00 +27°C° 0 mm 2 mps 728 mmHg 36%
    12:00 +28°C° 0 mm 1 mps 728 mmHg 35%
    13:00 +28°C° 0 mm 1 mps 727 mmHg 34%
    14:00 +29°C° 0 mm 1 mps 727 mmHg 33%
    15:00 +28°C° 0 mm 1 mps 727 mmHg 34%
    16:00 +28°C° 0 mm 1 mps 727 mmHg 35%
    17:00 +28°C° 0 mm 1 mps 727 mmHg 36%
    18:00 +27°C° 0.1 mm 1 mps 727 mmHg 41%
    19:00 +25°C° 0.1 mm 2 mps 727 mmHg 47%
    20:00 +24°C° 0.1 mm 2 mps 728 mmHg 52%
    21:00 +23°C° 0.4 mm 2 mps 728 mmHg 56%
    22:00 +22°C° 0.4 mm 1 mps 728 mmHg 59%
    23:00 +21°C° 0.4 mm 1 mps 729 mmHg 62%

    10 April, Friday

    Time Temperature Precipitation Wind Pressure Humidity
    00:00 +21°C° 0 mm 1 mps 728 mmHg 62%
    01:00 +21°C° 0 mm 1 mps 728 mmHg 62%
    02:00 +21°C° 0 mm 1 mps 728 mmHg 62%
    03:00 +20°C° 0 mm 1 mps 728 mmHg 62%
    04:00 +20°C° 0 mm 1 mps 728 mmHg 63%
    05:00 +19°C° 0 mm 1 mps 728 mmHg 63%
    06:00 +20°C° 0 mm 1 mps 728 mmHg 59%
    07:00 +22°C° 0 mm 1 mps 729 mmHg 54%
    08:00 +23°C° 0 mm 1 mps 729 mmHg 49%
    09:00 +24°C° 0 mm 1 mps 729 mmHg 45%
    10:00 +26°C° 0 mm 1 mps 730 mmHg 40%
    11:00 +27°C° 0 mm 1 mps 730 mmHg 36%
    12:00 +28°C° 0 mm 1 mps 730 mmHg 34%
    13:00 +29°C° 0 mm 1 mps 730 mmHg 32%
    14:00 +30°C° 0 mm 1 mps 730 mmHg 29%
    15:00 +30°C° 0 mm 1 mps 729 mmHg 29%
    16:00 +30°C° 0 mm 1 mps 729 mmHg 28%
    17:00 +30°C° 0 mm 1 mps 729 mmHg 27%
    18:00 +29°C° 0 mm 1 mps 729 mmHg 32%
    19:00 +27°C° 0 mm 1 mps 729 mmHg 37%
    20:00 +23°C° 0 mm 0 mps 730 mmHg 42%
    21:00 +23°C° 0 mm 0 mps 730 mmHg 42%
    22:00 +23°C° 0 mm 0 mps 731 mmHg 42%
    23:00 +22°C° 0 mm 0 mps 731 mmHg 42%

    11 April, Saturday

    Time Temperature Precipitation Wind Pressure Humidity
    00:00 +24°C° 0 mm 1 mps 731 mmHg 43%
    01:00 +23°C° 0 mm 1 mps 730 mmHg 44%
    02:00 +23°C° 0 mm 1 mps 730 mmHg 44%
    03:00 +23°C° 0 mm 1 mps 730 mmHg 45%
    04:00 +22°C° 0 mm 1 mps 730 mmHg 45%
    05:00 +22°C° 0 mm 1 mps 730 mmHg 45%
    06:00 +23°C° 0 mm 1 mps 731 mmHg 43%
    07:00 +24°C° 0 mm 1 mps 731 mmHg 40%
    08:00 +26°C° 0 mm 1 mps 731 mmHg 38%
    09:00 +27°C° 0 mm 1 mps 731 mmHg 34%
    10:00 +29°C° 0 mm 1 mps 731 mmHg 29%
    11:00 +30°C° 0 mm 1 mps 731 mmHg 25%
    12:00 +31°C° 0 mm 1 mps 731 mmHg 24%
    13:00 +32°C° 0 mm 1 mps 731 mmHg 22%
    14:00 +33°C° 0 mm 1 mps 730 mmHg 21%
    15:00 +33°C° 0 mm 1 mps 730 mmHg 22%
    16:00 +33°C° 0 mm 1 mps 729 mmHg 23%
    17:00 +32°C° 0 mm 2 mps 729 mmHg 25%
    18:00 +31°C° 0 mm 1 mps 729 mmHg 29%
    19:00 +29°C° 0 mm 1 mps 729 mmHg 33%
    20:00 +25°C° 0 mm 0 mps 730 mmHg 38%
    21:00 +24°C° 0 mm 0 mps 730 mmHg 38%
    22:00 +24°C° 0 mm 0 mps 730 mmHg 39%
    23:00 +23°C° 0 mm 0 mps 730 mmHg 40%
    Show more